Time,TemperatureF,DewpointF,PressureIn,WindDirection,WindDirectionDegrees,WindSpeedMPH,WindSpeedGustMPH,Humidity,HourlyPrecipIn,Conditions,Clouds,dailyrainin,SoftwareType,DateUTC
2013-06-30 00:00:00,69.5,67.9,29.74,West,274,0.0,4.0,95,0.00,,,0.00,Weather View 32 v70,2013-06-30 04:00:00,
2013-06-30 00:05:00,69.4,67.8,29.74,ESE,107,3.0,5.0,95,0.00,,,0.00,Weather View 32 v70,2013-06-30 04:05:00,
2013-06-30 00:09:00,69.4,67.8,29.74,ENE,66,0.0,5.0,95,0.00,,,0.00,Weather View 32 v70,2013-06-30 04:09:00,
2013-06-30 00:15:00,69.5,68.0,29.74,ENE,66,0.0,5.0,95,0.00,,,0.00,Weather View 32 v70,2013-06-30 04:15:00,
2013-06-30 00:20:00,69.5,67.9,29.73,ENE,66,0.0,5.0,95,0.00,,,0.00,Weather View 32 v70,2013-06-30 04:20:00,
2013-06-30 00:25:00,69.4,67.8,29.74,ENE,66,0.0,5.0,95,0.00,,,0.00,Weather View 32 v70,2013-06-30 04:25:00,
2013-06-30 00:35:00,69.3,67.7,29.74,ENE,66,0.0,5.0,95,0.00,,,0.00,Weather View 32 v70,2013-06-30 04:35:00,
2013-06-30 00:40:00,69.1,67.6,29.74,ENE,66,0.0,5.0,95,0.00,,,0.00,Weather View 32 v70,2013-06-30 04:40:00,
2013-06-30 00:45:00,69.1,67.6,29.75,ENE,66,0.0,5.0,95,0.00,,,0.00,Weather View 32 v70,2013-06-30 04:45:00,
2013-06-30 00:50:00,68.9,67.4,29.74,ENE,66,0.0,5.0,95,0.00,,,0.00,Weather View 32 v70,2013-06-30 04:50:00,
2013-06-30 01:00:00,68.7,67.2,29.74,ENE,66,0.0,5.0,95,0.00,,,0.00,Weather View 32 v70,2013-06-30 05:00:00,
2013-06-30 01:05:00,68.6,67.1,29.75,ENE,66,0.0,4.0,95,0.00,,,0.00,Weather View 32 v70,2013-06-30 05:05:00,
2013-06-30 01:10:00,68.8,67.4,29.75,ENE,66,0.0,1.0,95,0.00,,,0.00,Weather View 32 v70,2013-06-30 05:10:00,
2013-06-30 01:20:00,68.8,67.4,29.75,SSW,197,5.0,8.0,95,0.00,,,0.00,Weather View 32 v70,2013-06-30 05:20:00,
2013-06-30 01:25:00,68.9,67.5,29.76,SW,231,4.0,8.0,95,0.00,,,0.00,Weather View 32 v70,2013-06-30 05:25:00,
2013-06-30 01:35:00,68.7,67.4,29.75,SSE,152,0.0,9.0,96,0.01,,,0.01,Weather View 32 v70,2013-06-30 05:35:00,
2013-06-30 01:45:00,69.0,67.7,29.75,East,94,1.0,9.0,96,0.01,,,0.01,Weather View 32 v70,2013-06-30 05:45:00,
2013-06-30 01:50:00,68.9,67.6,29.75,ESE,118,0.0,9.0,96,0.01,,,0.01,Weather View 32 v70,2013-06-30 05:50:00,
2013-06-30 01:55:00,68.9,67.6,29.74,ESE,118,0.0,9.0,96,0.01,,,0.01,Weather View 32 v70,2013-06-30 05:55:00,
2013-06-30 02:05:00,68.7,67.4,29.74,ESE,118,0.0,9.0,96,0.01,,,0.01,Weather View 32 v70,2013-06-30 06:05:00,
2013-06-30 02:10:00,68.6,67.3,29.74,ESE,118,0.0,9.0,96,0.01,,,0.01,Weather View 32 v70,2013-06-30 06:10:00,
2013-06-30 02:15:00,68.7,67.4,29.74,ESE,118,0.0,9.0,96,0.01,,,0.01,Weather View 32 v70,2013-06-30 06:15:00,
2013-06-30 02:20:00,68.6,67.3,29.74,ESE,118,0.0,9.0,96,0.01,,,0.01,Weather View 32 v70,2013-06-30 06:20:00,
2013-06-30 02:28:00,68.7,67.4,29.74,ENE,63,3.0,9.0,96,0.01,,,0.01,Weather View 32 v70,2013-06-30 06:28:00,
2013-06-30 02:35:00,68.7,67.4,29.74,NNE,25,0.0,5.0,96,0.00,,,0.01,Weather View 32 v70,2013-06-30 06:35:00,
2013-06-30 02:40:00,68.5,67.2,29.74,NNE,25,0.0,4.0,96,0.00,,,0.01,Weather View 32 v70,2013-06-30 06:40:00,
2013-06-30 02:50:00,68.2,66.9,29.74,South,177,0.0,4.0,96,0.00,,,0.01,Weather View 32 v70,2013-06-30 06:50:00,
2013-06-30 02:55:00,68.3,67.0,29.74,South,177,0.0,4.0,96,0.00,,,0.01,Weather View 32 v70,2013-06-30 06:55:00,
2013-06-30 03:00:00,68.2,66.9,29.74,SSW,198,0.0,4.0,96,0.00,,,0.01,Weather View 32 v70,2013-06-30 07:00:00,
2013-06-30 03:10:00,68.3,67.0,29.74,SSW,198,0.0,4.0,96,0.00,,,0.01,Weather View 32 v70,2013-06-30 07:10:00,
2013-06-30 03:15:00,68.4,67.1,29.73,SSW,198,0.0,4.0,96,0.00,,,0.01,Weather View 32 v70,2013-06-30 07:15:00,
2013-06-30 03:25:00,68.3,67.0,29.73,SSW,198,0.0,4.0,96,0.00,,,0.01,Weather View 32 v70,2013-06-30 07:25:00,
2013-06-30 03:30:00,68.4,67.1,29.74,SSW,198,0.0,4.0,96,0.00,,,0.01,Weather View 32 v70,2013-06-30 07:30:00,
2013-06-30 03:35:00,68.4,67.1,29.74,SSW,198,0.0,4.0,96,0.00,,,0.01,Weather View 32 v70,2013-06-30 07:35:00,
2013-06-30 03:40:00,68.3,67.0,29.74,SSW,198,0.0,4.0,96,0.00,,,0.01,Weather View 32 v70,2013-06-30 07:40:00,
2013-06-30 03:50:00,68.4,67.1,29.74,SSW,198,0.0,0.0,96,0.00,,,0.01,Weather View 32 v70,2013-06-30 07:50:00,
2013-06-30 03:55:00,68.3,67.0,29.74,SSW,198,0.0,0.0,96,0.00,,,0.01,Weather View 32 v70,2013-06-30 07:55:00,
2013-06-30 04:00:00,68.2,66.9,29.75,SSW,198,0.0,0.0,96,0.00,,,0.01,Weather View 32 v70,2013-06-30 08:00:00,
2013-06-30 04:05:00,68.2,66.9,29.74,SSW,198,0.0,0.0,96,0.00,,,0.01,Weather View 32 v70,2013-06-30 08:05:00,
2013-06-30 04:15:00,68.2,67.0,29.74,SSW,198,0.0,0.0,96,0.00,,,0.01,Weather View 32 v70,2013-06-30 08:15:00,
2013-06-30 04:20:00,68.2,67.0,29.73,SSW,198,0.0,0.0,96,0.00,,,0.01,Weather View 32 v70,2013-06-30 08:20:00,
2013-06-30 04:29:00,68.2,67.0,29.73,SSW,198,0.0,0.0,96,0.00,,,0.01,Weather View 32 v70,2013-06-30 08:29:00,
2013-06-30 04:35:00,68.1,66.9,29.73,SSW,198,0.0,0.0,96,0.00,,,0.01,Weather View 32 v70,2013-06-30 08:35:00,
2013-06-30 04:40:00,68.1,66.9,29.73,SSW,198,0.0,0.0,96,0.00,,,0.01,Weather View 32 v70,2013-06-30 08:40:00,
2013-06-30 04:45:00,68.3,67.1,29.74,SSW,198,0.0,0.0,96,0.00,,,0.01,Weather View 32 v70,2013-06-30 08:45:00,
2013-06-30 04:50:00,68.1,66.9,29.74,SSW,198,0.0,0.0,96,0.00,,,0.01,Weather View 32 v70,2013-06-30 08:50:00,
2013-06-30 05:00:00,68.2,67.0,29.74,SSW,198,0.0,0.0,96,0.00,,,0.01,Weather View 32 v70,2013-06-30 09:00:00,
2013-06-30 05:05:00,68.2,67.0,29.74,SSW,198,0.0,0.0,96,0.00,,,0.01,Weather View 32 v70,2013-06-30 09:05:00,
2013-06-30 05:10:00,68.2,67.0,29.74,SSW,198,0.0,0.0,96,0.00,,,0.01,Weather View 32 v70,2013-06-30 09:10:00,
2013-06-30 05:20:00,68.2,67.0,29.75,SSW,198,0.0,0.0,96,0.00,,,0.01,Weather View 32 v70,2013-06-30 09:20:00,
2013-06-30 05:25:00,68.2,67.0,29.75,SSW,198,0.0,0.0,96,0.00,,,0.01,Weather View 32 v70,2013-06-30 09:25:00,
2013-06-30 05:30:00,68.3,67.1,29.75,SSW,198,0.0,0.0,96,0.00,,,0.01,Weather View 32 v70,2013-06-30 09:30:00,
2013-06-30 05:40:00,68.1,66.9,29.75,SSW,198,0.0,0.0,96,0.00,,,0.01,Weather View 32 v70,2013-06-30 09:40:00,
2013-06-30 05:45:00,68.1,66.9,29.76,SSW,198,0.0,0.0,96,0.00,,,0.01,Weather View 32 v70,2013-06-30 09:45:00,
2013-06-30 05:50:00,68.1,66.9,29.76,SSW,198,0.0,0.0,96,0.00,,,0.01,Weather View 32 v70,2013-06-30 09:50:00,
2013-06-30 05:55:00,68.1,66.9,29.76,SSW,198,0.0,0.0,96,0.00,,,0.01,Weather View 32 v70,2013-06-30 09:55:00,
2013-06-30 06:00:00,68.0,66.8,29.76,SSW,198,0.0,0.0,96,0.00,,,0.01,Weather View 32 v70,2013-06-30 10:00:00,
2013-06-30 06:10:00,67.9,66.7,29.77,SSW,198,0.0,0.0,96,0.00,,,0.01,Weather View 32 v70,2013-06-30 10:10:00,
2013-06-30 06:15:00,67.9,66.7,29.76,SSW,198,0.0,0.0,96,0.00,,,0.01,Weather View 32 v70,2013-06-30 10:15:00,
2013-06-30 06:20:00,67.9,66.7,29.76,SSW,198,0.0,0.0,96,0.00,,,0.01,Weather View 32 v70,2013-06-30 10:20:00,
2013-06-30 06:30:00,68.1,66.9,29.77,SSW,198,0.0,0.0,96,0.00,,,0.01,Weather View 32 v70,2013-06-30 10:30:00,
2013-06-30 06:35:00,68.0,66.8,29.77,SSW,198,0.0,0.0,96,0.00,,,0.01,Weather View 32 v70,2013-06-30 10:35:00,
2013-06-30 06:40:00,68.1,66.9,29.77,SSW,198,0.0,0.0,96,0.00,,,0.01,Weather View 32 v70,2013-06-30 10:40:00,
2013-06-30 06:50:00,68.1,66.9,29.78,SSW,198,0.0,0.0,96,0.00,,,0.01,Weather View 32 v70,2013-06-30 10:50:00,
2013-06-30 06:55:00,68.0,66.8,29.78,SSW,198,0.0,0.0,96,0.00,,,0.01,Weather View 32 v70,2013-06-30 10:55:00,
2013-06-30 07:00:00,68.1,67.0,29.78,South,191,0.0,1.0,96,0.00,,,0.01,Weather View 32 v70,2013-06-30 11:00:00,
2013-06-30 07:10:00,68.1,67.0,29.79,South,191,0.0,1.0,96,0.00,,,0.01,Weather View 32 v70,2013-06-30 11:10:00,
2013-06-30 07:20:00,68.4,67.3,29.79,South,191,0.0,1.0,96,0.00,,,0.01,Weather View 32 v70,2013-06-30 11:20:00,
2013-06-30 07:30:00,68.3,67.2,29.79,West,270,0.0,2.0,96,0.00,,,0.01,Weather View 32 v70,2013-06-30 11:30:00,
2013-06-30 07:35:00,68.4,67.3,29.79,West,270,0.0,2.0,96,0.00,,,0.01,Weather View 32 v70,2013-06-30 11:35:00,
2013-06-30 07:40:00,68.4,67.3,29.79,West,270,0.0,2.0,96,0.00,,,0.01,Weather View 32 v70,2013-06-30 11:40:00,
2013-06-30 07:50:00,68.8,67.7,29.80,West,270,0.0,2.0,96,0.00,,,0.01,Weather View 32 v70,2013-06-30 11:50:00,
2013-06-30 07:55:00,68.9,67.8,29.80,West,270,0.0,2.0,96,0.00,,,0.01,Weather View 32 v70,2013-06-30 11:55:00,
2013-06-30 08:00:00,68.9,67.8,29.80,West,270,0.0,2.0,96,0.00,,,0.01,Weather View 32 v70,2013-06-30 12:00:00,
2013-06-30 08:10:00,69.2,68.0,29.81,West,270,0.0,2.0,96,0.00,,,0.01,Weather View 32 v70,2013-06-30 12:10:00,
2013-06-30 08:15:00,69.4,68.2,29.81,West,270,0.0,2.0,96,0.00,,,0.01,Weather View 32 v70,2013-06-30 12:15:00,
2013-06-30 08:20:00,69.3,68.1,29.81,West,270,0.0,2.0,96,0.00,,,0.01,Weather View 32 v70,2013-06-30 12:20:00,
2013-06-30 08:30:00,69.6,68.4,29.81,West,270,0.0,0.0,96,0.00,,,0.01,Weather View 32 v70,2013-06-30 12:30:00,
2013-06-30 08:35:00,69.8,68.6,29.81,West,270,0.0,0.0,96,0.00,,,0.01,Weather View 32 v70,2013-06-30 12:35:00,
2013-06-30 08:40:00,70.3,69.1,29.81,West,270,0.0,0.0,96,0.00,,,0.01,Weather View 32 v70,2013-06-30 12:40:00,
2013-06-30 08:45:00,70.5,69.3,29.81,NNE,28,0.0,2.0,96,0.00,,,0.01,Weather View 32 v70,2013-06-30 12:45:00,
2013-06-30 08:55:00,70.7,69.4,29.81,WSW,253,0.0,2.0,96,0.00,,,0.01,Weather View 32 v70,2013-06-30 12:55:00,
2013-06-30 09:00:00,70.7,69.3,29.82,WSW,253,0.0,2.0,95,0.00,,,0.01,Weather View 32 v70,2013-06-30 13:00:00,
2013-06-30 09:05:00,70.7,69.3,29.82,WSW,253,0.0,2.0,95,0.00,,,0.01,Weather View 32 v70,2013-06-30 13:05:00,
2013-06-30 09:10:00,70.8,69.3,29.82,WSW,253,0.0,2.0,95,0.00,,,0.01,Weather View 32 v70,2013-06-30 13:10:00,
2013-06-30 09:15:00,71.1,69.6,29.81,WSW,253,0.0,2.0,95,0.00,,,0.01,Weather View 32 v70,2013-06-30 13:15:00,
2013-06-30 09:25:00,71.6,70.0,29.81,WSW,253,0.0,2.0,95,0.00,,,0.01,Weather View 32 v70,2013-06-30 13:25:00,
2013-06-30 09:32:00,71.6,69.8,29.81,WSW,253,0.0,2.0,94,0.00,,,0.01,Weather View 32 v70,2013-06-30 13:32:00,
2013-06-30 09:40:00,72.4,70.5,29.81,WNW,302,0.0,2.0,94,0.00,,,0.01,Weather View 32 v70,2013-06-30 13:40:00,
2013-06-30 09:45:00,72.4,70.4,29.81,WNW,302,0.0,2.0,93,0.00,,,0.01,Weather View 32 v70,2013-06-30 13:45:00,
2013-06-30 09:55:00,72.5,70.2,29.81,WNW,302,0.0,2.0,93,0.00,,,0.01,Weather View 32 v70,2013-06-30 13:55:00,
2013-06-30 10:00:00,73.3,71.0,29.81,East,79,3.0,4.0,93,0.00,,,0.01,Weather View 32 v70,2013-06-30 14:00:00,
2013-06-30 10:10:00,73.8,70.6,29.80,ESE,105,2.0,4.0,90,0.00,,,0.01,Weather View 32 v70,2013-06-30 14:10:00,
2013-06-30 10:15:00,74.7,71.6,29.81,NE,38,1.0,4.0,90,0.00,,,0.01,Weather View 32 v70,2013-06-30 14:15:00,
2013-06-30 10:20:00,74.9,71.4,29.81,ENE,77,0.0,4.0,89,0.00,,,0.01,Weather View 32 v70,2013-06-30 14:20:00,
2013-06-30 10:30:00,75.3,69.9,29.81,SW,214,2.0,4.0,83,0.00,,,0.01,Weather View 32 v70,2013-06-30 14:30:00,
2013-06-30 10:35:00,75.4,69.6,29.80,WSW,257,2.0,4.0,82,0.00,,,0.01,Weather View 32 v70,2013-06-30 14:35:00,
2013-06-30 10:40:00,75.8,70.2,29.80,WSW,257,0.0,4.0,83,0.00,,,0.01,Weather View 32 v70,2013-06-30 14:40:00,
2013-06-30 10:50:00,76.3,70.6,29.80,East,100,3.0,4.0,83,0.00,,,0.01,Weather View 32 v70,2013-06-30 14:50:00,
2013-06-30 10:55:00,76.7,70.8,29.79,NNW,347,1.0,4.0,82,0.00,,,0.01,Weather View 32 v70,2013-06-30 14:55:00,
2013-06-30 11:00:00,77.0,71.3,29.79,NE,42,4.0,6.0,83,0.00,,,0.01,Weather View 32 v70,2013-06-30 15:00:00,
2013-06-30 11:10:00,78.0,72.1,29.79,NW,323,2.0,6.0,82,0.00,,,0.01,Weather View 32 v70,2013-06-30 15:10:00,
2013-06-30 11:15:00,78.2,72.0,29.79,SW,236,4.0,6.0,81,0.00,,,0.01,Weather View 32 v70,2013-06-30 15:15:00,
2013-06-30 11:20:00,78.4,71.5,29.79,West,270,2.0,6.0,80,0.00,,,0.01,Weather View 32 v70,2013-06-30 15:20:00,
2013-06-30 11:30:00,79.0,71.7,29.80,South,174,5.0,6.0,78,0.00,,,0.01,Weather View 32 v70,2013-06-30 15:30:00,
2013-06-30 11:35:00,79.4,71.9,29.80,West,270,0.0,6.0,78,0.00,,,0.01,Weather View 32 v70,2013-06-30 15:35:00,
2013-06-30 11:40:00,79.5,71.5,29.80,South,169,0.0,6.0,77,0.00,,,0.01,Weather View 32 v70,2013-06-30 15:40:00,
2013-06-30 11:50:00,80.5,73.4,29.80,West,267,1.0,6.0,79,0.00,,,0.01,Weather View 32 v70,2013-06-30 15:50:00,
2013-06-30 11:55:00,80.5,72.7,29.80,West,269,2.0,6.0,77,0.00,,,0.01,Weather View 32 v70,2013-06-30 15:55:00,
2013-06-30 12:00:00,80.9,73.1,29.80,SW,225,3.0,6.0,77,0.00,,,0.01,Weather View 32 v70,2013-06-30 16:00:00,
2013-06-30 12:05:00,81.1,73.0,29.80,West,273,1.0,6.0,77,0.00,,,0.01,Weather View 32 v70,2013-06-30 16:05:00,
2013-06-30 12:15:00,81.5,72.7,29.80,SE,146,5.0,8.0,75,0.00,,,0.01,Weather View 32 v70,2013-06-30 16:15:00,
2013-06-30 12:25:00,82.4,74.1,29.80,North,352,3.0,8.0,76,0.00,,,0.01,Weather View 32 v70,2013-06-30 16:25:00,
2013-06-30 12:30:00,82.5,74.0,29.80,WNW,291,5.0,8.0,76,0.00,,,0.01,Weather View 32 v70,2013-06-30 16:30:00,
2013-06-30 12:35:00,82.8,73.4,29.80,SW,228,2.0,8.0,74,0.00,,,0.01,Weather View 32 v70,2013-06-30 16:35:00,
2013-06-30 12:40:00,82.8,73.6,29.79,SSE,163,0.0,8.0,74,0.00,,,0.01,Weather View 32 v70,2013-06-30 16:40:00,
2013-06-30 12:50:00,83.1,72.9,29.79,SSE,156,1.0,8.0,72,0.00,,,0.01,Weather View 32 v70,2013-06-30 16:50:00,
2013-06-30 12:55:00,83.4,72.5,29.80,WSW,240,5.0,8.0,70,0.00,,,0.01,Weather View 32 v70,2013-06-30 16:55:00,
2013-06-30 13:00:00,83.5,72.3,29.79,SE,129,4.0,8.0,69,0.00,,,0.01,Weather View 32 v70,2013-06-30 17:00:00,
2013-06-30 13:10:00,84.0,73.9,29.79,West,260,4.0,6.0,72,0.00,,,0.01,Weather View 32 v70,2013-06-30 17:10:00,
2013-06-30 13:15:00,84.2,72.9,29.79,SW,229,3.0,6.0,69,0.00,,,0.01,Weather View 32 v70,2013-06-30 17:15:00,
2013-06-30 13:20:00,84.5,73.4,29.79,SW,222,3.0,7.0,70,0.00,,,0.01,Weather View 32 v70,2013-06-30 17:20:00,
2013-06-30 13:30:00,84.8,72.5,29.79,South,179,6.0,9.0,67,0.00,,,0.01,Weather View 32 v70,2013-06-30 17:30:00,
2013-06-30 13:35:00,85.2,72.5,29.79,West,262,0.0,9.0,66,0.00,,,0.01,Weather View 32 v70,2013-06-30 17:35:00,
2013-06-30 13:40:00,85.1,72.6,29.79,SE,138,1.0,9.0,66,0.00,,,0.01,Weather View 32 v70,2013-06-30 17:40:00,
2013-06-30 13:50:00,84.7,72.9,29.79,SE,134,2.0,9.0,68,0.00,,,0.01,Weather View 32 v70,2013-06-30 17:50:00,
2013-06-30 13:55:00,84.8,71.9,29.78,North,10,0.0,9.0,66,0.00,,,0.01,Weather View 32 v70,2013-06-30 17:55:00,
2013-06-30 14:00:00,85.2,71.8,29.78,NE,45,0.0,9.0,64,0.00,,,0.01,Weather View 32 v70,2013-06-30 18:00:00,
2013-06-30 14:10:00,85.8,72.9,29.77,SW,226,2.0,9.0,66,0.00,,,0.01,Weather View 32 v70,2013-06-30 18:10:00,
2013-06-30 14:15:00,86.5,72.1,29.77,SE,132,4.0,10.0,63,0.00,,,0.01,Weather View 32 v70,2013-06-30 18:15:00,
2013-06-30 14:20:00,86.9,73.0,29.77,SSE,162,10.0,11.0,64,0.00,,,0.01,Weather View 32 v70,2013-06-30 18:20:00,
2013-06-30 14:30:00,86.8,70.7,29.78,South,176,6.0,12.0,59,0.00,,,0.01,Weather View 32 v70,2013-06-30 18:30:00,
2013-06-30 14:35:00,86.0,71.6,29.78,South,172,4.0,12.0,62,0.00,,,0.01,Weather View 32 v70,2013-06-30 18:35:00,
2013-06-30 14:45:00,85.3,72.1,29.77,ESE,117,7.0,12.0,65,0.00,,,0.01,Weather View 32 v70,2013-06-30 18:45:00,
2013-06-30 14:55:00,85.2,72.3,29.77,ESE,103,4.0,12.0,66,0.00,,,0.01,Weather View 32 v70,2013-06-30 18:55:00,
2013-06-30 15:00:00,84.9,71.8,29.77,South,169,2.0,12.0,65,0.00,,,0.01,Weather View 32 v70,2013-06-30 19:00:00,
2013-06-30 15:10:00,84.5,71.2,29.77,South,187,5.0,12.0,65,0.00,,,0.01,Weather View 32 v70,2013-06-30 19:10:00,
2013-06-30 15:15:00,84.4,71.1,29.77,South,187,4.0,12.0,65,0.00,,,0.01,Weather View 32 v70,2013-06-30 19:15:00,
2013-06-30 15:25:00,84.5,71.7,29.77,SE,132,6.0,16.0,66,0.00,,,0.01,Weather View 32 v70,2013-06-30 19:25:00,
2013-06-30 15:30:00,84.3,71.1,29.77,South,187,7.0,16.0,65,0.00,,,0.01,Weather View 32 v70,2013-06-30 19:30:00,
2013-06-30 15:35:00,83.7,70.4,29.76,NNE,20,2.0,16.0,65,0.00,,,0.01,Weather View 32 v70,2013-06-30 19:35:00,
2013-06-30 15:40:00,83.4,72.1,29.76,NNW,340,3.0,16.0,69,0.00,,,0.01,Weather View 32 v70,2013-06-30 19:40:00,
2013-06-30 15:50:00,86.3,72.8,29.76,SSW,207,4.0,16.0,64,0.00,,,0.01,Weather View 32 v70,2013-06-30 19:50:00,
2013-06-30 15:55:00,87.5,72.2,29.76,East,80,3.0,16.0,61,0.00,,,0.01,Weather View 32 v70,2013-06-30 19:55:00,
2013-06-30 16:00:00,88.2,68.7,29.76,East,82,4.0,16.0,53,0.00,,,0.01,Weather View 32 v70,2013-06-30 20:00:00,
2013-06-30 16:10:00,88.4,70.6,29.77,ESE,115,2.0,16.0,56,0.00,,,0.01,Weather View 32 v70,2013-06-30 20:10:00,
2013-06-30 16:15:00,87.7,71.7,29.77,SE,136,6.0,16.0,59,0.00,,,0.01,Weather View 32 v70,2013-06-30 20:15:00,
2013-06-30 16:20:00,87.8,69.8,29.76,SE,142,4.0,14.0,56,0.00,,,0.01,Weather View 32 v70,2013-06-30 20:20:00,
2013-06-30 16:25:00,88.3,71.1,29.76,West,267,4.0,14.0,57,0.00,,,0.01,Weather View 32 v70,2013-06-30 20:25:00,
2013-06-30 16:35:00,88.6,70.6,29.76,ENE,75,7.0,14.0,56,0.00,,,0.01,Weather View 32 v70,2013-06-30 20:35:00,
2013-06-30 16:40:00,89.0,71.4,29.77,SSE,153,6.0,14.0,56,0.00,,,0.01,Weather View 32 v70,2013-06-30 20:40:00,
2013-06-30 16:45:00,88.7,70.5,29.77,South,190,7.0,14.0,55,0.00,,,0.01,Weather View 32 v70,2013-06-30 20:45:00,
2013-06-30 16:55:00,86.3,70.4,29.77,ESE,104,5.0,18.0,59,0.00,,,0.01,Weather View 32 v70,2013-06-30 20:55:00,
2013-06-30 17:00:00,85.9,70.8,29.76,South,181,4.0,18.0,61,0.00,,,0.01,Weather View 32 v70,2013-06-30 21:00:00,
2013-06-30 17:05:00,85.1,70.0,29.76,ESE,122,7.0,19.0,61,0.00,,,0.01,Weather View 32 v70,2013-06-30 21:05:00,
2013-06-30 17:15:00,84.4,69.8,29.76,ESE,107,10.0,19.0,62,0.00,,,0.01,Weather View 32 v70,2013-06-30 21:15:00,
2013-06-30 17:20:00,83.5,69.3,29.77,SE,143,10.0,19.0,63,0.00,,,0.01,Weather View 32 v70,2013-06-30 21:20:00,
2013-06-30 17:25:00,82.8,69.5,29.77,SSW,210,10.0,19.0,64,0.00,,,0.01,Weather View 32 v70,2013-06-30 21:25:00,
2013-06-30 17:30:00,82.5,69.6,29.77,SSE,158,3.0,19.0,65,0.00,,,0.01,Weather View 32 v70,2013-06-30 21:30:00,
2013-06-30 17:35:00,82.4,70.0,29.77,SE,141,7.0,19.0,66,0.00,,,0.01,Weather View 32 v70,2013-06-30 21:35:00,
2013-06-30 17:40:00,81.8,69.5,29.77,SE,134,11.0,19.0,66,0.00,,,0.01,Weather View 32 v70,2013-06-30 21:40:00,
2013-06-30 17:45:00,82.1,70.0,29.78,SE,134,7.0,19.0,67,0.00,,,0.01,Weather View 32 v70,2013-06-30 21:45:00,
2013-06-30 17:50:00,82.3,70.1,29.77,ESE,110,4.0,19.0,67,0.00,,,0.01,Weather View 32 v70,2013-06-30 21:50:00,
2013-06-30 17:55:00,82.7,70.3,29.77,SSE,156,3.0,19.0,66,0.00,,,0.01,Weather View 32 v70,2013-06-30 21:55:00,
2013-06-30 18:05:00,82.6,70.5,29.78,NNE,24,6.0,17.0,67,0.00,,,0.01,Weather View 32 v70,2013-06-30 22:05:00,
2013-06-30 18:10:00,82.7,70.8,29.78,SSE,155,3.0,19.0,67,0.00,,,0.01,Weather View 32 v70,2013-06-30 22:10:00,
2013-06-30 18:15:00,82.4,70.6,29.78,SSE,148,6.0,19.0,68,0.00,,,0.01,Weather View 32 v70,2013-06-30 22:15:00,
2013-06-30 18:25:00,82.9,71.0,29.78,SSE,160,5.0,19.0,68,0.00,,,0.01,Weather View 32 v70,2013-06-30 22:25:00,
2013-06-30 18:30:00,83.0,71.2,29.78,West,263,3.0,19.0,68,0.00,,,0.01,Weather View 32 v70,2013-06-30 22:30:00,
2013-06-30 18:35:00,82.8,71.2,29.78,SSE,167,9.0,19.0,68,0.00,,,0.01,Weather View 32 v70,2013-06-30 22:35:00,
2013-06-30 18:45:00,82.4,71.2,29.78,SSE,163,6.0,19.0,69,0.00,,,0.01,Weather View 32 v70,2013-06-30 22:45:00,
2013-06-30 18:55:00,81.8,71.0,29.78,East,98,6.0,19.0,70,0.00,,,0.01,Weather View 32 v70,2013-06-30 22:55:00,
2013-06-30 19:00:00,81.7,71.1,29.78,South,179,5.0,19.0,70,0.00,,,0.01,Weather View 32 v70,2013-06-30 23:00:00,
2013-06-30 19:05:00,81.4,71.1,29.78,South,186,4.0,19.0,71,0.00,,,0.01,Weather View 32 v70,2013-06-30 23:05:00,
2013-06-30 19:10:00,81.4,71.3,29.79,South,169,8.0,14.0,72,0.00,,,0.01,Weather View 32 v70,2013-06-30 23:10:00,
2013-06-30 19:15:00,81.0,70.9,29.79,SSW,198,7.0,14.0,72,0.00,,,0.01,Weather View 32 v70,2013-06-30 23:15:00,
2013-06-30 19:20:00,80.8,71.0,29.79,SSW,195,7.0,16.0,72,0.00,,,0.01,Weather View 32 v70,2013-06-30 23:20:00,
2013-06-30 19:25:00,80.5,70.7,29.79,SSW,204,8.0,16.0,72,0.00,,,0.01,Weather View 32 v70,2013-06-30 23:25:00,
2013-06-30 19:30:00,80.4,70.8,29.80,SSE,159,5.0,16.0,73,0.00,,,0.01,Weather View 32 v70,2013-06-30 23:30:00,
2013-06-30 19:35:00,80.2,70.6,29.79,SSE,152,8.0,16.0,73,0.00,,,0.01,Weather View 32 v70,2013-06-30 23:35:00,
2013-06-30 19:45:00,79.9,70.4,29.80,SE,132,5.0,16.0,73,0.00,,,0.01,Weather View 32 v70,2013-06-30 23:45:00,
2013-06-30 19:55:00,79.7,70.7,29.80,SSE,167,7.0,16.0,74,0.00,,,0.01,Weather View 32 v70,2013-06-30 23:55:00,
2013-06-30 20:00:00,79.3,70.5,29.81,SSW,204,5.0,16.0,75,0.00,,,0.01,Weather View 32 v70,2013-07-01 00:00:00,
2013-06-30 20:05:00,79.1,70.2,29.80,SE,134,3.0,16.0,74,0.00,,,0.01,Weather View 32 v70,2013-07-01 00:05:00,
2013-06-30 20:10:00,79.2,70.2,29.80,SSW,208,11.0,16.0,74,0.00,,,0.01,Weather View 32 v70,2013-07-01 00:10:00,
2013-06-30 20:20:00,78.8,69.8,29.81,South,174,4.0,14.0,74,0.00,,,0.01,Weather View 32 v70,2013-07-01 00:20:00,
2013-06-30 20:25:00,78.4,69.0,29.81,SSE,166,5.0,14.0,73,0.00,,,0.01,Weather View 32 v70,2013-07-01 00:25:00,
2013-06-30 20:30:00,78.4,69.3,29.82,South,170,6.0,13.0,74,0.00,,,0.01,Weather View 32 v70,2013-07-01 00:30:00,
2013-06-30 20:35:00,78.3,69.3,29.82,SSE,165,7.0,13.0,74,0.00,,,0.01,Weather View 32 v70,2013-07-01 00:35:00,
2013-06-30 20:40:00,78.5,69.4,29.82,South,176,7.0,13.0,74,0.00,,,0.01,Weather View 32 v70,2013-07-01 00:40:00,
2013-06-30 20:50:00,78.2,69.2,29.82,SW,218,8.0,13.0,74,0.00,,,0.01,Weather View 32 v70,2013-07-01 00:50:00,
2013-06-30 20:55:00,78.1,69.2,29.83,South,190,6.0,15.0,74,0.00,,,0.01,Weather View 32 v70,2013-07-01 00:55:00,
2013-06-30 21:00:00,78.1,69.2,29.83,SSE,162,10.0,15.0,74,0.00,,,0.01,Weather View 32 v70,2013-07-01 01:00:00,
2013-06-30 21:05:00,78.1,69.3,29.83,South,173,14.0,15.0,74,0.00,,,0.01,Weather View 32 v70,2013-07-01 01:05:00,
2013-06-30 21:15:00,78.0,69.6,29.83,SSW,208,7.0,17.0,76,0.00,,,0.01,Weather View 32 v70,2013-07-01 01:15:00,
2013-06-30 21:25:00,77.8,69.7,29.84,South,172,6.0,17.0,76,0.00,,,0.01,Weather View 32 v70,2013-07-01 01:25:00,
2013-06-30 21:30:00,77.4,69.4,29.84,SSE,166,4.0,17.0,77,0.00,,,0.01,Weather View 32 v70,2013-07-01 01:30:00,
2013-06-30 21:35:00,77.4,69.6,29.85,SSW,208,6.0,17.0,77,0.00,,,0.01,Weather View 32 v70,2013-07-01 01:35:00,
2013-06-30 21:40:00,77.3,69.6,29.85,SSW,195,8.0,17.0,77,0.00,,,0.01,Weather View 32 v70,2013-07-01 01:40:00,
2013-06-30 21:50:00,77.0,69.7,29.85,SW,233,0.0,17.0,78,0.00,,,0.01,Weather View 32 v70,2013-07-01 01:50:00,
2013-06-30 21:55:00,76.9,69.7,29.85,SSW,194,3.0,17.0,79,0.00,,,0.01,Weather View 32 v70,2013-07-01 01:55:00,
2013-06-30 22:00:00,76.9,69.9,29.86,ESE,111,0.0,17.0,79,0.00,,,0.01,Weather View 32 v70,2013-07-01 02:00:00,
2013-06-30 22:10:00,76.6,69.8,29.86,SSW,200,4.0,16.0,80,0.00,,,0.01,Weather View 32 v70,2013-07-01 02:10:00,
2013-06-30 22:15:00,76.6,69.9,29.87,SW,236,3.0,16.0,80,0.00,,,0.01,Weather View 32 v70,2013-07-01 02:15:00,
2013-06-30 22:20:00,76.3,69.7,29.87,SSW,210,7.0,16.0,80,0.00,,,0.01,Weather View 32 v70,2013-07-01 02:20:00,
2013-06-30 22:30:00,76.4,69.8,29.87,SE,146,3.0,12.0,80,0.00,,,0.01,Weather View 32 v70,2013-07-01 02:30:00,
2013-06-30 22:35:00,76.3,69.8,29.87,SE,128,4.0,12.0,81,0.00,,,0.01,Weather View 32 v70,2013-07-01 02:35:00,
2013-06-30 22:40:00,76.2,69.7,29.87,SSE,158,5.0,9.0,81,0.00,,,0.01,Weather View 32 v70,2013-07-01 02:40:00,
2013-06-30 22:50:00,76.0,69.6,29.87,ESE,111,5.0,8.0,81,0.00,,,0.01,Weather View 32 v70,2013-07-01 02:50:00,
2013-06-30 22:55:00,76.1,69.8,29.87,SE,128,3.0,8.0,81,0.00,,,0.01,Weather View 32 v70,2013-07-01 02:55:00,
2013-06-30 23:00:00,75.9,69.8,29.87,SE,127,3.0,8.0,81,0.00,,,0.01,Weather View 32 v70,2013-07-01 03:00:00,
2013-06-30 23:10:00,75.4,69.4,29.87,SW,219,3.0,8.0,82,0.00,,,0.01,Weather View 32 v70,2013-07-01 03:10:00,
2013-06-30 23:15:00,75.4,69.6,29.88,SW,233,2.0,8.0,82,0.00,,,0.01,Weather View 32 v70,2013-07-01 03:15:00,
2013-06-30 23:25:00,75.0,69.4,29.88,SW,218,2.0,8.0,83,0.00,,,0.01,Weather View 32 v70,2013-07-01 03:25:00,
2013-06-30 23:30:00,75.0,69.2,29.88,SW,219,3.0,8.0,82,0.00,,,0.01,Weather View 32 v70,2013-07-01 03:30:00,
2013-06-30 23:35:00,75.2,69.5,29.88,East,98,1.0,8.0,83,0.00,,,0.01,Weather View 32 v70,2013-07-01 03:35:00,
2013-06-30 23:41:00,75.0,69.2,29.88,SSW,193,2.0,8.0,82,0.00,,,0.01,Weather View 32 v70,2013-07-01 03:41:00,
2013-06-30 23:50:00,74.9,69.3,29.88,SSE,159,1.0,7.0,83,0.00,,,0.01,Weather View 32 v70,2013-07-01 03:50:00,
2013-06-30 23:55:00,74.8,69.3,29.88,South,169,3.0,7.0,83,0.00,,,0.01,Weather View 32 v70,2013-07-01 03:55:00,